Regional Weather Roundup
Issued by NWS Burlington, VT

Home | Current Version | Previous Version | Text Only | Print | Product List | Glossary On
Versions: 1 2 3 4 5 6 7 8 9 10 11 12 13 14 15 16 17 18 19 20 21 22 23 24 25 26 27 28 29 30 31 32 33 34 35 36 37 38 39 40 41 42 43 44 45 46 47 48 49 50
000
ASUS41 KBTV 260130
RWRBTV
VERMONT REGIONAL WEATHER ROUNDUP
NATIONAL WEATHER SERVICE BURLINGTON VT
900 PM EDT MON MAY 25 2015

NOTE: "FAIR" INDICATES FEW OR NO CLOUDS BELOW 12,000 FEET WITH NO
SIGNIFICANT WEATHER AND/OR OBSTRUCTIONS TO VISIBILITY.

* THESE REPORTS ARE NOT UNDER NWS QUALITY CONTROL AND/OR DO NOT
  REPORT WEATHER SUCH AS PRECIPITATION AND FOG.

VTZ001>019-260200-
_____VERMONT_____


CITY           SKY/WX    TMP DP  RH WIND       PRES   REMARKS
BURLINGTON     LGT RAIN  65  61  87 CALM      30.05R
MONTPELIER     LGT RAIN  62  60  93 N5        30.14R FOG
MORRISVILLE    LGT RAIN  63  60  90 CALM      30.10R
ST. JOHNSBURY*   N/A     62  60  93 MISG      30.08S
LYNDONVILLE*   LGT RAIN  61  55  80 CALM      30.13R
MIDDLEBURY*    CLOUDY    67  63  86 CALM      30.03S
RUTLAND*       CLOUDY    72  57  60 SE12      30.06R
SPRINGFIELD    CLOUDY    68  61  78 CALM      30.08F
HIGHGATE*      LGT RAIN  62  61  96 SE3       30.04R
NEWPORT*       LGT RAIN  60  56  87 S3        30.09S
BENNINGTON     MOCLDY    78  57  48 S14G20    30.08R
SUTTON*          N/A     59 N/A N/A MISG        N/A
GALLUP MILLS*    N/A     57 N/A N/A MISG        N/A
MT. MANSFIELD*   N/A     55 N/A N/A CALM        N/A

_____LAKE CHAMPLAIN_____


CITY           SKY/WX    TMP DP  RH WIND       PRES   REMARKS
BURTON ISLAND*   N/A     59  57  94 S5          N/A
COLCHESTER RF*   N/A     57  57 100 N6          N/A
DIAMOND ISL*     N/A     63  57  82 N7          N/A

$$

NYZ007-026>031-035-052-083-260200-
_____NORTHERN NEW YORK_____


CITY           SKY/WX    TMP DP  RH WIND       PRES   REMARKS
PLATTSBURGH    LGT RAIN  61  60  97 E3        30.03F FOG
MASSENA        LGT RAIN  63  61  93 E5        29.99F FOG
OGDENSBURG*    PTCLDY    64  63  94 CALM      29.97F FOG
POTSDAM*       CLOUDY    63  63 100 CALM      29.97F FOG
STARK FALLS*     N/A     66 N/A N/A SE12        N/A
WATERTOWN      LGT RAIN  66  64  93 NE5       29.98R
FT DRUM        HVY RAIN  68  68 100 VRB6      30.00S FOG
ALBANY         MOCLDY    82  55  39 S10       30.05R
GLENS FALLS    CLOUDY    71  63  75 NW3       30.02F

$$
NHZ002-005-011-260200-
_____NEW HAMPSHIRE_____


CITY           SKY/WX    TMP DP  RH WIND       PRES   REMARKS
LEBANON        CLOUDY    65  62  90 CALM      30.07F
KEENE          CLOUDY    73  55  53 S10       30.12R
MT WASHINGTON  LGT RAIN  48  48 100 W41G51      N/A  VSB 0
PLYMOUTH       LGT RAIN  64  63  98 CALM      30.10S
WHITEFIELD     LGT RAIN  62  59  90 CALM      30.10F

$$

_____REGIONAL QUEBEC LOCATIONS_____


CITY           SKY/WX    TMP DP  RH WIND       PRES   REMARKS
MONTREAL       LGT RAIN  61  59  94 E8        30.02F
QUEBEC CITY    LGT RAIN  61  59  94 SW8       30.06S
SHERBROOKE     LGT RAIN  59 N/A N/A E3        30.08F

_____REGIONAL ONTARIO LOCATIONS_____


CITY           SKY/WX    TMP DP  RH WIND       PRES   REMARKS
OTTAWA         CLOUDY    61  61 100 E9        29.96F FOG

______KEY______
VSB  - VISIBILITY IN MILES
WCI  - WIND CHILL INDEX
HX   - HEAT INDEX
$$
NNNN



USA.gov is the U.S. government's official web portal to all federal, state and local government web resources and services.